Lapse_Rate
9.7 9.8 9.9 10.0 10.0 9.9 10.1 10.1 9.8 9.5 9.3 9.6 9.5 9.7 9.9 10.0 9.4 9.3 9.2 8.9 9.0 9.0 9.1 8.7 9.0 8.6 9.0 9.1 8.5 8.9 8.8 8.5 8.2 8.9 9.3 9.2 9.0 8.5 7.6 6.3 5.2 4.0 4.4
9.6 9.8 9.8 10.0 10.0 9.9 9.9 9.9 9.1 9.9 9.3 9.4 9.6 9.9 9.9 9.8 9.3 9.3 9.0 9.2 9.1 8.9 8.4 8.6 8.7 9.1 8.4 8.5 8.7 8.4 8.4 8.7 8.3 8.1 8.8 8.7 8.3 8.0 7.4 6.4 4.9 3.6 4.0
9.6 9.8 9.8 9.8 9.9 9.9 9.9 9.9 9.1 9.4 9.6 9.8 9.8 9.8 9.7 9.5 9.3 8.9 9.3 9.3 9.3 9.2 8.8 8.9 8.9 9.0 8.7 8.6 8.2 8.1 8.3 8.4 8.7 8.5 7.9 8.3 7.6 7.3 6.7 6.4 5.1 4.7 5.4
9.7 9.7 9.7 9.8 9.9 9.9 10.0 9.9 9.7 9.5 10.0 10.0 9.8 9.9 9.4 9.2 9.3 8.9 9.3 9.4 9.5 9.3 9.5 9.3 9.3 8.9 8.4 8.5 8.2 8.0 7.9 8.2 8.3 8.5 8.4 8.2 7.5 7.1 6.9 7.0 6.7 5.3 5.0
9.6 9.6 9.7 9.8 9.9 9.9 9.9 10.0 9.8 9.9 9.9 9.7 10.0 9.8 9.0 9.4 9.4 8.3 9.2 9.5 9.5 9.3 9.5 9.5 9.5 8.9 8.2 8.1 8.0 8.1 8.0 8.2 8.1 8.6 8.3 8.3 7.7 7.3 7.0 6.9 6.9 6.1 5.1
9.6 9.6 9.8 9.9 9.9 9.8 9.9 9.9 10.0 10.0 10.1 10.0 9.8 9.4 9.0 9.4 8.6 8.3 9.1 9.5 9.6 9.3 9.3 9.5 9.5 8.9 8.6 7.9 7.8 7.6 7.6 7.8 8.2 8.5 7.9 8.0 7.6 7.3 7.1 6.8 7.0 6.9 6.9
9.6 9.6 9.7 9.8 9.8 9.8 9.9 9.9 9.9 9.9 10.1 9.9 9.9 9.6 9.2 9.3 8.6 8.5 8.4 9.7 9.6 9.4 9.4 9.3 9.0 8.9 8.3 8.4 8.4 7.9 7.5 7.1 6.2 7.0 7.5 7.6 7.5 6.9 6.8 7.1 6.4 6.6 6.2
9.5 9.6 9.7 9.8 9.7 9.8 9.8 9.8 9.8 10.0 10.0 10.0 9.9 9.8 9.6 9.6 8.3 8.3 8.2 9.7 9.7 9.5 9.5 9.5 8.5 8.7 8.0 7.3 8.6 8.6 8.3 8.2 7.3 7.3 7.5 7.5 7.3 6.3 6.8 6.2 6.3 5.7 5.5
9.5 9.5 9.6 9.4 9.4 9.6 9.7 9.7 9.9 9.9 9.9 10.0 10.1 9.9 9.8 9.6 8.3 7.9 8.6 9.7 9.8 9.6 9.6 9.5 7.8 8.0 6.5 6.2 7.6 8.5 8.7 8.2 7.5 6.5 6.2 6.2 6.3 5.6 5.6 7.1 7.1 7.2 7.0
9.3 8.7 9.5 9.3 9.6 9.6 9.7 9.8 10.0 10.1 10.0 10.1 9.9 10.0 9.5 9.6 8.4 6.8 7.3 9.5 9.6 9.6 9.6 9.5 7.4 6.4 6.0 5.9 6.7 7.5 8.0 7.0 6.8 7.7 7.9 7.8 7.0 6.7 5.4 5.9 6.8 7.6 7.0
8.1 9.1 9.3 9.2 9.6 9.9 9.9 10.0 10.1 10.0 10.0 9.9 9.8 9.9 9.8 9.5 9.2 6.4 6.6 7.7 8.1 9.4 9.2 8.6 7.4 5.8 5.7 5.5 5.4 6.0 5.6 6.3 7.6 8.1 7.7 8.3 7.6 7.2 6.8 6.4 5.6 5.8 6.3
8.9 8.3 7.3 7.8 9.4 10.0 9.9 9.9 10.0 10.0 9.8 9.7 9.7 9.7 9.8 9.7 8.4 6.5 6.2 6.0 5.6 8.8 8.0 6.8 6.2 5.5 5.6 5.4 5.4 4.9 4.9 6.2 7.4 7.5 7.7 7.6 7.6 7.3 6.9 6.5 6.4 5.4 4.6
7.2 4.8 6.6 9.2 9.4 9.2 9.8 9.7 9.8 9.8 9.7 9.6 9.5 9.4 9.4 9.6 9.3 6.6 5.7 5.9 5.5 6.3 6.4 5.7 5.4 5.2 5.5 5.7 5.3 5.2 5.3 5.9 6.7 7.2 7.6 7.5 7.3 7.1 7.0 6.9 6.6 6.3 5.8
4.7 8.1 9.6 8.9 9.5 9.4 8.7 9.7 9.2 8.8 9.3 9.4 9.3 9.3 9.3 9.4 7.4 6.0 5.9 5.7 5.2 5.2 5.6 5.8 5.3 5.6 5.8 5.9 6.1 6.2 6.2 6.5 6.9 7.3 7.4 7.3 7.3 6.6 6.8 7.0 7.1 7.3 7.1
9.4 9.4 9.6 9.5 9.5 9.6 7.7 6.5 7.5 5.9 5.5 6.5 7.1 9.3 7.5 6.3 5.4 5.6 5.2 4.9 4.6 4.2 5.8 6.3 5.4 5.8 6.1 5.8 6.0 6.1 6.1 6.0 6.6 7.1 7.1 7.3 7.2 7.0 6.8 6.9 7.4 8.2 7.2
9.3 9.3 7.5 9.4 9.2 9.5 9.7 9.3 3.2 3.8 3.9 4.1 4.2 4.9 5.9 5.1 4.4 4.0 3.9 3.9 3.7 4.3 5.6 5.7 5.5 5.8 6.8 6.4 6.0 6.1 6.0 6.0 6.6 7.0 6.8 6.9 7.1 7.2 7.1 7.7 8.4 8.7 8.1
9.4 8.8 8.3 8.0 8.3 7.8 9.1 9.3 9.0 6.1 4.3 4.6 4.0 4.2 4.3 4.3 3.8 3.3 3.5 5.0 4.1 4.9 5.2 5.1 5.1 5.5 5.7 6.2 6.0 6.3 6.2 6.2 6.7 7.0 6.9 7.5 7.7 7.7 7.4 7.3 7.9 8.5 8.6
6.4 3.9 7.0 6.7 6.5 6.9 7.3 7.7 7.8 7.9 8.4 8.0 6.3 5.1 4.5 4.2 3.8 3.2 3.5 5.3 5.7 5.5 5.3 5.0 4.9 5.0 4.8 4.9 5.1 5.6 5.7 5.9 7.1 7.6 7.2 7.6 7.9 7.9 7.8 7.9 7.8 8.1 8.5
7.3 7.0 6.8 6.7 6.1 5.9 7.6 8.0 8.1 8.3 8.4 8.2 7.3 6.2 5.0 5.4 4.9 4.5 4.0 5.4 6.1 6.4 6.0 5.1 5.0 4.4 4.2 4.1 4.0 4.4 5.0 4.9 6.1 7.4 7.6 7.7 7.8 8.1 7.9 7.8 8.4 8.0 8.3
5.9 3.5 5.0 6.7 6.4 6.8 7.2 7.6 7.6 8.1 8.3 8.3 6.4 5.0 4.3 7.6 6.4 5.6 5.2 4.8 5.3 5.3 5.4 5.4 4.7 4.2 4.0 3.9 4.0 4.0 4.3 4.2 4.6 5.9 6.9 7.4 7.4 7.8 7.8 8.0 8.0 8.4 8.5
7.5 6.1 3.8 6.6 6.6 6.6 6.8 6.7 6.7 6.9 6.8 7.1 6.4 3.3 1.4 6.4 6.4 6.2 5.5 4.8 5.0 4.8 4.3 4.8 4.4 3.9 3.7 4.1 4.1 4.2 3.9 3.6 3.4 4.4 5.2 5.6 6.1 6.4 6.7 7.7 8.2 8.6 8.7
7.0 6.5 6.3 6.2 6.0 5.8 6.4 6.3 6.2 6.2 6.0 6.0 6.1 5.2 3.3 5.4 5.8 5.7 5.1 4.3 4.2 4.1 3.5 3.4 3.6 3.4 3.0 3.2 3.6 3.8 3.6 3.4 3.3 3.4 4.8 4.9 5.4 5.4 5.8 6.3 6.3 7.3 8.6
6.7 6.4 6.4 6.2 5.7 3.7 5.4 5.8 5.7 5.7 5.5 5.2 5.3 5.1 4.9 4.5 4.4 4.5 4.3 3.3 3.4 3.0 2.0 2.0 2.3 2.0 1.8 2.7 2.6 2.6 2.4 2.3 3.0 2.5 4.0 4.4 4.3 5.0 5.1 5.1 5.6 5.5 5.2
6.6 6.2 6.4 5.7 4.9 5.4 5.0 4.5 4.6 2.9 4.2 4.4 4.4 4.8 4.5 4.2 4.0 3.8 3.1 2.4 2.3 2.5 1.5 1.4 1.4 0.8 0.7 0.7 1.2 1.4 0.1 -0.4 1.2 3.1 3.2 3.8 4.0 4.4 4.6 4.8 4.5 4.3 5.5
6.3 5.9 5.6 5.7 5.0 4.6 3.7 4.3 4.1 3.8 3.9 3.7 3.8 4.1 4.6 4.2 4.2 3.3 2.7 2.2 1.5 1.8 1.7 1.2 0.3 0.7 0.9 0.1 -0.8 -1.3 -2.5 -2.3 -0.2 2.2 3.3 3.5 3.9 3.8 4.0 4.3 4.1 4.2 4.0
6.0 5.8 5.7 5.5 5.1 4.5 4.3 3.8 3.6 3.6 3.7 3.6 3.3 3.3 3.4 3.7 3.5 2.9 2.5 1.8 1.4 1.9 1.4 1.2 0.8 0.9 0.8 0.5 -1.3 -2.5 -3.0 -2.6 -0.2 1.1 2.4 2.6 2.9 3.6 3.9 3.8 3.8 3.8 3.9
Wind_Speed
6 6 7 7 8 9 9 9 11 12 13 13 13 13 12 12 15 13 14 12 13 10 10 10 11 10 8 9 9 8 8 7 9 11 9 10 12 11 10 14 12 12 9
6 6 6 8 8 9 9 10 13 11 13 13 13 12 12 12 14 15 15 13 12 11 10 10 11 8 11 10 9 9 8 9 8 13 11 10 10 10 9 10 5 9 8
5 5 6 8 9 9 10 11 12 12 12 13 13 12 13 12 13 14 15 13 11 11 11 11 11 12 10 11 10 8 7 7 8 8 9 7 8 6 7 4 4 4 5
5 5 7 8 8 9 9 10 11 12 10 11 13 12 13 13 14 16 16 13 11 10 11 11 11 12 12 14 11 10 7 8 7 8 8 7 6 7 4 2 2 3 3
4 5 7 7 8 9 9 10 12 11 11 13 11 12 14 12 13 17 16 13 11 11 11 11 11 13 16 17 8 10 9 7 7 7 7 7 6 8 6 3 2 0 4
4 5 7 8 8 9 10 11 11 11 10 10 11 12 12 9 26 26 19 13 11 10 11 12 12 14 16 19 13 13 9 7 8 7 6 8 7 7 5 4 2 1 1
5 5 7 8 9 10 10 11 12 11 11 11 11 12 12 12 26 27 25 11 11 10 11 12 12 10 14 15 12 10 4 5 6 9 9 8 9 9 6 5 2 2 3
5 5 7 8 9 10 11 11 12 11 11 11 11 12 12 11 25 27 28 13 11 11 11 12 13 14 15 16 11 9 7 6 7 7 7 7 6 7 5 3 2 3 3
5 5 6 7 8 9 10 11 12 11 10 10 11 12 13 13 24 27 22 13 12 12 11 11 14 15 20 21 12 11 9 8 8 8 7 10 11 13 11 2 0 3 3
4 4 5 6 8 9 10 10 11 10 10 9 11 11 13 14 22 26 23 10 13 10 11 12 17 18 19 20 12 11 10 10 9 9 8 9 10 10 12 8 5 4 4
3 3 6 7 7 8 9 10 10 10 10 10 11 11 13 15 17 25 25 12 11 9 9 10 10 21 20 21 18 12 11 9 8 8 7 7 8 8 7 7 7 6 4
4 5 6 6 6 7 9 10 10 10 11 12 12 11 11 14 20 22 24 20 19 10 10 9 11 19 19 20 16 20 18 12 8 8 7 8 8 8 6 5 8 8 7
5 4 4 5 6 8 9 10 9 11 10 10 10 10 11 11 12 23 22 22 18 10 9 13 18 17 17 15 20 20 15 10 9 9 9 8 8 7 8 5 9 16 18
3 0 4 7 7 8 8 8 9 9 9 9 10 10 11 11 12 13 12 15 17 12 13 9 10 11 12 12 11 12 10 10 9 9 9 8 7 8 8 6 5 8 9
3 4 5 5 7 7 8 8 7 10 11 9 9 10 10 11 13 16 15 11 10 11 10 9 10 10 11 11 11 11 11 11 10 10 9 9 8 8 7 7 7 8 9
4 4 5 5 5 5 5 5 10 8 10 14 15 13 11 16 22 22 20 22 22 17 9 10 11 11 11 11 11 10 10 12 11 10 9 9 9 9 8 8 8 9 9
4 4 4 4 5 5 5 5 5 4 5 11 15 16 18 19 23 24 21 17 21 15 10 10 11 11 11 11 10 10 10 10 11 9 9 9 8 8 9 8 8 8 8
6 4 5 4 4 4 4 5 4 5 6 7 10 13 17 18 21 24 22 16 12 13 11 11 11 11 11 11 11 10 10 9 9 9 9 9 8 8 8 8 8 8 8
4 4 4 4 5 4 4 5 5 6 6 7 7 11 16 16 17 20 21 11 11 11 11 11 11 10 11 10 10 10 10 10 10 9 9 9 8 8 9 8 8 11 11
6 5 4 4 3 4 4 4 5 5 6 6 7 9 9 10 10 11 11 11 11 10 11 11 11 11 11 11 11 10 10 11 10 10 10 9 9 8 9 9 9 9 9
4 4 3 3 3 3 3 4 4 5 5 5 6 7 11 8 9 10 10 10 10 10 10 11 10 10 11 10 11 11 11 11 11 10 9 9 9 9 9 9 9 9 9
3 3 3 3 2 2 3 3 4 4 5 5 5 6 9 7 8 8 9 9 12 15 15 15 13 15 16 15 13 11 11 11 11 11 10 9 9 9 9 9 9 9 9
3 3 3 2 2 2 1 2 3 3 4 4 5 5 6 6 7 7 8 11 13 15 15 16 16 16 18 18 18 18 12 10 13 17 10 9 9 9 9 10 10 10 11
3 3 2 2 1 1 1 1 2 2 3 3 4 4 5 5 6 6 9 10 12 13 14 15 15 17 19 18 18 18 17 17 15 16 16 12 10 10 10 10 10 11 9
3 2 2 2 2 2 1 1 0 1 1 2 3 3 4 4 4 6 8 9 10 11 12 13 15 17 19 20 20 19 19 19 18 16 16 15 14 13 11 10 11 12 13
4 3 3 2 2 3 3 2 2 2 1 1 1 2 3 3 4 5 6 7 8 8 10 11 14 15 17 18 20 20 20 20 21 19 17 17 14 9 10 12 14 11 13
Wind_Direction
21 8 356 356 352 346 349 347 350 346 348 347 349 347 349 346 345 339 330 333 332 328 324 322 317 316 309 308 305 303 295 292 298 308 313 314 314 310 301 295 298 289 289
22 5 1 359 355 355 357 351 350 347 349 348 349 352 352 348 346 338 335 339 334 334 330 325 324 322 320 324 317 311 299 299 301 305 314 319 320 313 301 295 291 290 293
17 4 10 6 1 0 357 352 351 347 350 351 357 357 356 348 342 346 342 335 336 333 334 329 326 328 331 331 326 314 307 304 303 309 307 318 322 320 316 290 317 289 283
18 9 17 7 2 2 357 353 351 348 352 354 359 0 359 344 353 348 343 332 339 345 333 334 333 341 334 330 330 317 312 308 306 305 310 325 321 328 302 297 320 24 353
20 18 15 5 2 3 359 355 354 355 357 360 357 5 357 348 357 351 344 335 343 346 339 341 344 336 335 323 330 329 321 318 314 317 317 327 342 336 337 313 290 42 50
28 25 9 6 3 5 358 357 357 358 0 1 359 8 352 355 351 355 350 331 345 350 346 347 347 335 338 331 335 324 317 321 320 322 322 332 335 334 327 321 307 257 120
32 28 14 8 5 4 357 358 359 1 359 357 1 8 355 358 354 355 350 338 347 355 352 354 345 345 346 343 340 326 315 287 289 304 319 336 328 333 315 311 355 57 58
38 31 18 10 7 0 359 359 2 360 0 358 2 5 0 5 357 357 348 352 353 6 3 1 353 351 358 349 342 351 357 359 354 336 336 346 345 338 324 306 344 99 106
42 37 17 6 2 3 3 2 4 1 360 1 2 5 4 2 3 360 353 359 358 10 11 9 6 356 357 358 357 357 1 12 354 334 339 357 358 17 10 283 113 151 93
52 35 10 14 7 7 2 6 8 4 1 3 5 10 7 5 10 3 3 3 357 6 6 3 15 0 4 10 7 2 5 1 358 359 12 17 16 31 25 31 19 85 109
64 27 24 19 12 7 5 13 11 7 10 10 10 15 7 12 6 5 10 6 357 1 3 360 1 359 7 14 15 15 6 350 8 15 16 17 22 31 32 32 34 37 73
60 44 31 21 15 12 19 19 16 16 18 17 13 13 9 8 10 5 6 12 5 4 3 0 357 2 6 14 15 13 12 7 17 21 24 19 15 25 26 20 49 63 51
61 38 18 31 29 30 25 24 22 22 21 18 13 13 5 8 4 5 2 7 10 360 1 1 2 5 10 16 16 13 14 13 15 20 19 17 18 19 29 25 74 77 63
111 56 47 50 25 40 37 30 34 26 19 19 12 11 3 6 6 2 1 0 2 4 359 5 5 11 27 20 18 19 18 14 11 15 12 14 25 30 31 28 47 73 73
79 54 51 44 42 48 63 31 37 44 28 15 11 8 7 4 2 0 8 8 3 348 354 13 18 17 19 18 18 17 18 14 12 11 17 19 26 35 37 36 48 63 64
82 62 35 49 47 42 43 89 78 58 37 34 30 20 9 9 6 9 11 18 14 10 24 23 21 18 18 16 15 12 16 12 7 9 17 20 24 31 32 47 59 65 67
81 75 85 52 47 39 34 35 39 116 105 49 33 27 18 11 13 14 15 19 29 25 31 24 21 17 14 16 15 13 14 13 3 11 18 18 22 29 31 28 40 56 63
98 30 77 67 57 46 42 40 43 32 26 25 45 23 14 14 16 19 16 23 29 31 30 23 19 15 14 11 12 12 14 14 16 20 21 22 25 28 35 40 33 49 62
94 76 77 73 56 32 37 42 39 37 33 27 17 20 12 16 22 27 25 29 26 25 23 24 20 18 15 12 10 10 15 14 15 25 29 25 26 35 38 34 47 45 54
91 64 38 81 76 54 41 41 42 38 36 32 29 15 3 15 21 22 26 23 23 24 20 21 19 19 16 14 12 13 15 20 17 20 25 28 25 34 40 42 38 51 55
111 105 37 86 71 56 45 47 43 41 39 35 35 30 353 11 21 23 22 20 20 20 17 15 18 18 16 16 16 15 17 18 19 13 20 19 27 36 31 42 42 53 54
113 116 101 85 85 73 55 50 45 41 40 34 26 33 7 28 23 23 23 18 17 19 18 15 16 18 15 15 14 15 18 19 20 12 20 26 27 32 40 48 53 40 48
131 129 133 112 81 119 108 57 52 38 39 38 23 24 24 24 22 20 19 13 15 16 16 16 18 14 14 15 15 16 16 14 15 15 19 29 36 37 43 48 47 53 42
153 160 167 133 183 185 96 77 77 47 9 30 23 22 23 20 20 19 17 13 10 16 17 16 15 16 14 14 14 13 16 12 15 25 30 36 39 41 43 48 49 49 54
160 180 191 186 193 212 184 239 101 28 3 16 13 9 19 12 19 17 16 13 9 12 14 16 15 13 14 16 15 12 10 16 21 23 36 43 51 50 47 49 49 52 51
184 192 210 222 205 218 227 229 234 242 270 294 352 350 353 2 9 6 8 11 8 12 13 16 14 15 15 17 12 10 16 21 26 30 39 45 46 42 51 52 53 57 54